RH
26 25 24 24 24 24 22 20 19 18 19 20 22 24 26 28 29 30 29 29 29 34 36 43 50 52 55 56 56 56 58 58 62 55 53 54 59 66 62 63 66 60 59
27 28 26 25 24 24 23 22 20 20 21 22 25 27 29 30 31 32 31 30 33 38 44 52 57 61 62 62 60 58 56 55 57 60 60 69 71 66 66 74 66 65 71
28 28 27 26 26 25 24 22 21 21 22 24 28 30 31 32 32 31 31 32 39 43 50 58 62 66 67 65 62 58 57 57 66 79 86 74 67 86 83 76 86 73 75
27 27 28 27 26 24 23 22 22 22 24 27 29 30 31 32 31 32 36 41 44 48 52 56 62 68 68 62 58 57 62 64 63 64 69 89 76 80 85 71 56 56 62
28 29 29 27 24 23 22 21 22 24 27 29 30 31 32 32 33 39 43 44 45 48 52 59 64 65 60 57 57 58 61 66 88 96 83 92 88 64 60 60 63 67 76
29 30 26 25 23 22 22 23 24 26 28 31 32 33 33 34 39 42 44 44 46 50 56 60 64 65 62 59 60 61 64 69 76 93 95 86 67 65 66 66 77 92 89
27 26 25 23 22 23 24 24 26 28 31 33 33 34 34 34 39 40 43 46 49 51 57 61 65 66 68 75 76 70 75 83 89 78 74 74 73 70 82 96 93 89 86
26 25 24 23 22 24 25 26 29 32 33 35 34 34 34 32 39 41 46 51 55 58 60 63 67 74 85 71 72 77 97 94 79 73 70 72 88 89 70 69 76 87 90
25 24 23 22 24 25 27 29 32 33 34 34 34 34 33 36 41 48 54 61 62 64 66 69 80 77 70 62 74 98 96 87 65 63 81 73 63 62 66 85 93 93 86
24 24 23 25 26 27 30 32 33 35 35 35 34 33 35 42 52 60 64 66 66 67 82 90 77 64 58 85 85 78 75 64 83 91 67 67 71 75 76 84 95 94 92
24 24 25 27 28 31 33 34 35 36 35 34 34 36 42 51 61 65 65 64 68 89 88 79 74 68 97 64 62 61 64 73 76 70 72 76 80 82 81 89 98 98 94
24 26 27 28 32 34 36 36 36 36 35 35 38 44 51 59 64 65 63 63 75 74 78 74 80 94 61 60 62 64 66 70 72 79 84 85 84 90 94 97 98 98 99
26 27 29 32 35 37 37 38 37 36 38 42 47 55 60 61 61 64 66 66 63 63 80 84 83 64 62 66 69 68 70 79 95 94 89 88 92 96 98 97 98 97 98
28 30 34 36 41 38 39 38 39 42 45 53 57 59 61 61 61 60 61 63 66 92 93 83 66 63 69 71 73 73 80 92 94 95 94 93 95 96 96 97 97 95 96
32 35 37 40 42 42 41 43 47 49 52 57 58 58 60 60 59 58 60 63 75 80 68 70 67 74 78 76 74 77 83 89 94 94 95 95 94 95 94 95 97 96 94
34 37 41 46 45 45 47 49 50 55 57 56 57 57 58 59 59 60 61 72 72 66 70 71 79 82 81 79 82 88 89 89 94 96 95 95 95 94 95 94 94 96 95
37 41 46 46 46 48 50 56 61 58 58 57 57 58 61 61 61 62 69 67 69 69 75 82 84 83 84 86 91 94 94 93 96 96 97 96 96 95 91 92 94 94 92
40 45 48 49 50 51 55 55 58 63 63 61 60 61 60 61 63 68 69 71 74 78 83 85 86 86 89 94 95 95 95 95 95 97 96 97 97 96 94 94 94 95 95
47 49 52 51 51 56 53 58 62 65 64 62 62 61 60 64 71 75 71 78 85 89 84 86 88 93 96 96 96 96 96 96 96 97 96 97 97 97 95 95 95 89 93
48 48 56 54 53 55 61 62 65 63 62 61 61 60 63 70 80 77 80 85 89 87 88 92 94 96 97 98 98 98 97 96 97 97 97 98 98 98 97 97 96 96 95
51 46 58 58 64 65 63 62 61 60 60 60 60 64 68 74 78 82 87 90 89 92 96 98 97 98 98 99 99 98 98 98 98 98 99 99 100 97 98 98 99 98 98
52 56 62 68 67 62 59 56 55 58 60 64 68 75 76 79 83 90 89 90 92 97 98 99 99 100 99 99 98 99 100 100 98 98 100 100 100 98 99 99 99 98 98
62 63 69 67 62 58 55 56 58 62 66 75 82 84 83 84 90 89 92 95 97 99 100 100 99 99 99 97 98 98 98 97 97 100 100 99 98 98 99 99 99 98 98
59 65 66 60 55 58 58 63 65 73 80 85 88 87 90 91 91 93 97 99 100 100 100 100 98 97 96 97 97 96 96 96 98 98 99 99 99 99 99 98 98 98 99
58 61 58 57 60 64 67 74 82 88 94 94 93 92 92 94 98 98 100 100 100 100 100 96 97 96 97 96 96 97 96 98 99 100 98 99 100 100 100 100 100 98 98
58 60 62 64 67 71 76 84 93 98 98 97 96 98 99 100 99 100 100 100 100 100 95 96 96 96 96 96 97 98 99 99 99 98 99 98 100 100 99 99 99 98 99
Wind_Speed
19 17 16 13 10 7 7 6 7 7 9 11 13 15 17 19 22 22 22 21 24 18 24 24 25 26 26 26 27 25 25 21 14 36 37 36 36 35 35 32 30 32 36
18 16 14 11 8 6 5 6 6 8 10 12 14 17 19 22 23 23 24 26 19 25 26 25 26 26 27 27 26 27 24 28 26 18 37 34 35 38 37 35 32 32 30
17 15 12 9 6 5 4 5 7 9 12 14 16 19 21 24 24 25 24 21 26 25 21 24 27 27 27 28 28 28 28 28 25 24 28 35 36 32 33 31 28 34 30
17 13 10 7 5 4 4 6 8 11 14 16 19 20 22 24 25 23 25 28 26 23 24 27 28 27 28 29 30 28 26 28 29 29 30 27 30 27 27 31 33 32 33
15 12 8 5 3 3 5 7 10 12 15 17 19 21 23 25 22 27 27 26 25 25 27 27 26 25 29 30 30 32 34 31 28 23 26 23 21 30 27 31 31 34 32
14 10 7 4 3 4 6 9 12 14 17 19 21 23 25 25 25 26 26 28 27 28 27 27 27 27 28 31 34 36 35 35 33 29 22 16 29 30 31 32 32 20 13
13 9 5 3 2 4 7 10 13 16 18 20 23 24 25 27 25 27 27 29 29 29 28 28 28 27 29 30 36 36 35 35 32 33 31 29 32 33 36 30 26 26 23
11 8 4 2 3 6 9 11 14 17 19 22 24 25 26 28 25 26 28 27 25 25 27 27 28 29 29 36 38 35 32 26 28 30 31 34 34 35 36 35 34 33 31
10 6 3 2 4 7 10 14 16 19 21 23 25 26 27 26 26 26 26 27 26 26 26 25 29 31 34 39 38 31 28 24 28 33 33 34 38 38 35 35 26 20 14
8 4 2 2 5 9 12 15 17 20 22 24 25 24 23 25 24 25 25 25 25 27 27 26 28 33 38 38 37 31 25 32 32 29 31 33 32 34 33 30 29 15 12
6 3 1 3 7 10 13 16 20 21 23 24 24 26 24 21 24 25 26 26 25 26 26 29 30 37 35 38 36 31 32 36 31 30 30 31 30 28 30 30 31 29 24
5 2 2 5 8 10 14 18 20 21 22 26 28 24 21 22 22 25 27 28 28 28 27 30 34 32 37 36 33 31 34 33 30 28 28 27 28 30 31 34 36 36 35
4 2 3 6 9 12 17 19 20 22 25 25 21 20 20 23 25 25 27 27 30 31 29 33 30 34 32 29 30 31 31 28 25 24 25 27 29 33 35 32 32 30 32
3 2 5 8 12 16 17 18 19 23 25 19 19 20 22 23 23 26 27 29 29 27 28 24 29 29 27 28 29 28 27 26 28 26 27 30 31 29 28 27 27 28 25
2 4 8 11 13 16 17 18 19 19 19 22 22 22 23 24 26 32 33 33 33 32 34 26 26 26 26 26 27 27 28 28 27 27 28 29 28 27 26 27 25 26 17
4 8 10 12 15 16 20 24 21 17 19 19 20 22 25 25 29 31 32 32 33 32 25 23 23 24 24 26 26 28 28 29 28 30 28 27 25 26 26 27 25 20 13
6 8 11 12 14 17 22 22 20 21 17 18 20 22 23 26 28 29 31 33 29 26 21 22 23 24 25 27 27 27 28 30 31 28 27 26 26 25 26 24 21 19 16
7 8 11 14 15 18 19 22 22 20 22 23 21 23 23 26 27 28 30 28 24 23 21 22 24 25 27 27 28 28 29 30 29 28 28 26 25 23 23 19 20 17 15
7 10 13 15 17 17 20 21 21 18 18 21 25 23 23 26 26 25 26 21 22 22 24 25 26 27 27 28 28 29 29 29 30 29 27 26 26 24 20 20 19 22 20
9 11 13 16 18 19 21 21 18 17 19 19 21 23 25 26 23 25 23 22 22 24 25 27 28 28 29 29 29 29 29 29 29 28 27 27 26 25 19 19 18 16 15
11 15 15 17 18 19 20 20 19 19 19 19 21 22 26 26 22 22 23 23 25 26 27 28 30 30 30 30 29 29 28 29 28 27 27 27 27 23 21 19 18 16 13
13 15 16 17 18 18 20 19 20 18 19 19 21 23 25 22 21 22 24 25 26 27 28 28 30 31 31 31 31 30 29 29 30 28 28 29 27 22 21 19 17 16 13
14 16 16 17 16 19 19 19 18 17 19 20 21 22 22 22 22 24 25 26 27 29 29 30 31 33 34 34 34 31 30 31 33 32 32 31 22 21 20 17 16 15 12
14 15 16 16 19 17 19 17 18 18 20 21 21 22 21 22 24 25 26 27 28 30 30 32 34 35 37 38 38 36 34 34 36 37 25 19 18 17 18 16 13 15 10
13 14 15 17 18 19 19 18 19 20 21 20 21 21 23 24 24 25 26 27 28 30 34 36 36 37 38 38 35 33 32 36 35 21 17 13 13 14 15 12 12 11 9
12 14 16 18 19 21 22 22 23 20 20 22 21 23 22 23 24 26 26 27 29 35 36 38 39 39 38 36 34 33 34 33 19 16 12 12 11 12 13 11 10 10 10
Wind_Direction
138 133 126 116 108 93 65 45 24 4 352 346 343 340 339 338 339 337 335 333 329 329 328 327 323 319 312 310 306 299 291 286 288 297 298 301 302 300 299 298 292 290 290
142 134 124 120 110 82 51 24 5 355 347 343 339 336 336 336 335 333 330 330 326 328 328 325 320 318 313 308 303 298 294 293 285 287 295 299 296 298 300 299 298 299 294
144 137 129 117 99 69 33 10 358 346 342 339 337 337 335 333 331 330 327 325 324 323 322 325 323 315 309 306 303 301 299 299 298 292 291 292 295 300 297 300 303 299 293
145 139 127 112 87 54 18 360 350 342 339 338 338 335 331 332 332 329 325 321 320 319 324 324 320 310 305 308 309 307 310 306 301 295 289 293 297 304 304 299 301 299 295
146 138 125 113 76 34 9 353 343 341 338 335 333 333 333 334 330 324 322 321 320 320 320 319 313 311 313 311 311 314 308 302 298 298 299 295 309 307 305 302 297 297 292
145 137 130 110 56 14 352 347 342 338 335 333 334 335 334 329 325 326 324 320 319 317 314 311 308 308 308 309 309 307 304 306 307 296 292 303 301 302 301 294 291 293 300
145 138 127 91 34 355 347 342 338 336 333 334 337 335 329 330 331 327 325 320 318 315 316 311 308 307 308 307 305 306 303 299 303 307 299 298 298 299 296 297 303 298 294
143 140 129 69 2 346 340 336 336 334 335 336 335 333 334 334 329 327 326 324 326 323 319 317 311 312 313 312 310 309 302 308 307 302 296 295 295 302 306 304 302 298 292
144 145 124 22 349 336 335 335 334 335 335 335 335 336 335 334 334 331 329 332 324 321 319 318 318 315 315 315 315 316 320 315 312 308 306 306 306 305 305 305 300 300 297
148 139 102 2 333 333 334 331 335 337 333 334 332 333 335 332 334 333 333 328 323 320 319 318 318 318 316 316 324 324 322 316 315 319 318 314 310 306 307 305 301 294 294
141 123 63 346 338 337 333 338 337 335 332 329 330 333 331 327 328 333 333 330 323 318 318 319 317 316 319 327 325 328 313 320 325 322 313 309 308 308 307 305 299 291 289
129 105 16 347 340 339 341 341 339 334 329 332 331 327 322 320 323 327 329 327 323 324 321 319 315 324 327 325 325 322 324 325 318 312 310 310 312 309 308 305 302 298 294
123 75 354 343 349 350 346 342 336 337 338 335 327 320 321 324 323 323 322 324 331 329 324 320 326 327 327 326 324 326 325 318 311 309 312 310 310 306 304 303 303 302 300
120 29 358 357 352 349 346 345 339 339 338 331 326 326 323 324 327 325 330 332 332 330 326 331 330 328 326 323 322 323 322 318 317 314 311 309 308 308 306 307 306 308 308
97 20 6 356 347 342 345 343 338 339 335 329 326 327 327 328 327 330 333 332 332 333 333 333 329 327 325 324 325 324 323 322 321 318 314 311 311 311 310 312 307 309 303
37 10 356 341 340 344 342 342 347 336 328 326 326 328 327 323 326 330 330 332 333 332 335 329 324 323 322 322 323 322 323 323 320 318 313 311 311 313 314 316 315 311 310
18 356 342 341 340 339 343 341 327 329 329 330 330 330 327 326 330 330 334 333 334 335 331 325 321 321 319 319 319 320 318 318 318 315 311 313 313 312 319 318 320 321 317
2 348 341 340 337 338 338 333 329 325 326 327 330 331 331 332 330 333 334 334 332 333 328 323 319 318 317 317 318 318 317 317 316 313 315 313 313 313 315 319 323 319 325
349 349 344 340 340 337 333 330 325 318 316 318 323 329 333 331 330 332 337 335 326 325 325 321 319 317 316 316 315 316 315 313 315 314 312 314 315 315 312 320 320 330 340
350 346 343 341 337 335 331 328 322 322 322 321 322 327 329 330 338 335 334 330 327 323 321 319 318 317 315 315 315 314 312 313 312 312 313 314 316 316 313 317 320 322 332
345 347 346 339 336 330 330 327 326 322 319 320 321 325 329 335 329 327 326 326 323 320 318 317 317 315 314 314 313 312 311 309 308 309 311 315 317 313 320 319 318 323 329
348 344 340 334 330 331 331 328 326 321 322 323 325 325 329 331 326 324 323 322 321 319 318 316 313 313 313 311 310 309 308 306 307 309 310 312 312 314 323 325 329 332 341
341 336 334 332 330 330 330 328 324 325 327 327 325 322 326 326 325 323 321 321 321 320 319 318 315 314 316 316 314 310 303 301 304 306 303 302 303 322 326 330 340 339 352
339 336 333 330 332 330 329 324 324 327 327 324 320 319 322 324 321 320 321 321 321 320 320 319 319 320 322 323 324 324 322 319 315 308 313 317 326 335 339 343 346 345 22
339 336 332 333 334 333 330 327 326 324 320 318 317 319 321 319 318 321 322 322 321 321 321 327 326 326 330 335 337 340 340 334 332 334 336 344 344 349 355 2 2 16 46
340 336 336 335 334 332 329 327 325 323 319 316 316 317 316 316 319 320 322 322 322 323 329 330 332 339 341 343 346 347 341 344 351 353 3 357 352 7 6 18 38 52 58